Hourly Weather Orange Walk

Today, 12 July, Sunday

Time Temperature Precipitation Wind Pressure Humidity
00:00 +24°C° 0 mm 0 mps 759 mmHg 96%
01:00 +24°C° 0.1 mm 0 mps 759 mmHg 96%
02:00 +24°C° 0.1 mm 0 mps 758 mmHg 96%
03:00 +24°C° 0.1 mm 0 mps 757 mmHg 97%
04:00 +24°C° 0.1 mm 0 mps 758 mmHg 96%
05:00 +24°C° 0.1 mm 0 mps 758 mmHg 96%
06:00 +24°C° 0.1 mm 0 mps 758 mmHg 96%
07:00 +26°C° 0.1 mm 0 mps 758 mmHg 88%
08:00 +30°C° 0.1 mm 1 mps 758 mmHg 79%
09:00 +31°C° 0.1 mm 1 mps 758 mmHg 71%
10:00 +32°C° 0.5 mm 1 mps 758 mmHg 69%
11:00 +32°C° 0.5 mm 2 mps 758 mmHg 67%
12:00 +34°C° 0.5 mm 2 mps 758 mmHg 65%
13:00 +34°C° 0 mm 2 mps 758 mmHg 60%
14:00 +35°C° 0 mm 2 mps 757 mmHg 56%
15:00 +35°C° 0 mm 3 mps 756 mmHg 52%
16:00 +34°C° 0 mm 2 mps 757 mmHg 59%
17:00 +31°C° 0 mm 2 mps 757 mmHg 66%
18:00 +30°C° 0 mm 2 mps 757 mmHg 72%
19:00 +29°C° 0 mm 2 mps 757 mmHg 77%
20:00 +28°C° 0 mm 2 mps 758 mmHg 82%
21:00 +26°C° 0 mm 1 mps 758 mmHg 87%
22:00 +26°C° 0 mm 1 mps 758 mmHg 89%
23:00 +26°C° 0 mm 1 mps 758 mmHg 91%

Tomorrow, 13 July, Monday

Time Temperature Precipitation Wind Pressure Humidity
00:00 +23°C° 0 mm 0 mps 758 mmHg 93%
01:00 +23°C° 0 mm 0 mps 758 mmHg 93%
02:00 +23°C° 0 mm 0 mps 758 mmHg 94%
03:00 +23°C° 0 mm 0 mps 757 mmHg 95%
04:00 +23°C° 0 mm 0 mps 757 mmHg 94%
05:00 +23°C° 0 mm 0 mps 758 mmHg 94%
06:00 +24°C° 0 mm 0 mps 758 mmHg 93%
07:00 +28°C° 0.1 mm 1 mps 758 mmHg 85%
08:00 +30°C° 0.1 mm 2 mps 759 mmHg 76%
09:00 +32°C° 0.1 mm 2 mps 759 mmHg 67%
10:00 +34°C° 0 mm 2 mps 759 mmHg 62%
11:00 +35°C° 0 mm 3 mps 758 mmHg 57%
12:00 +36°C° 0 mm 3 mps 758 mmHg 52%
13:00 +36°C° 0 mm 3 mps 758 mmHg 53%
14:00 +35°C° 0 mm 3 mps 757 mmHg 53%
15:00 +35°C° 0 mm 3 mps 757 mmHg 54%
16:00 +34°C° 0 mm 3 mps 757 mmHg 62%
17:00 +31°C° 0 mm 3 mps 757 mmHg 69%
18:00 +30°C° 0 mm 2 mps 757 mmHg 77%
19:00 +28°C° 0 mm 2 mps 757 mmHg 83%
20:00 +27°C° 0 mm 1 mps 758 mmHg 89%
21:00 +26°C° 0 mm 1 mps 758 mmHg 94%
22:00 +26°C° 0 mm 1 mps 758 mmHg 95%
23:00 +26°C° 0 mm 1 mps 758 mmHg 95%

Day after tomorrow, 14 July, Tuesday

Time Temperature Precipitation Wind Pressure Humidity
00:00 +26°C° 0 mm 1 mps 758 mmHg 96%
01:00 +26°C° 0 mm 1 mps 758 mmHg 95%
02:00 +26°C° 0 mm 1 mps 758 mmHg 95%
03:00 +26°C° 0 mm 1 mps 757 mmHg 94%
04:00 +26°C° 0 mm 1 mps 757 mmHg 93%
05:00 +26°C° 0 mm 1 mps 758 mmHg 93%
06:00 +26°C° 0 mm 1 mps 758 mmHg 92%
07:00 +28°C° 0.1 mm 2 mps 758 mmHg 84%
08:00 +30°C° 0.1 mm 2 mps 758 mmHg 75%
09:00 +33°C° 0.1 mm 3 mps 759 mmHg 67%
10:00 +33°C° 0.8 mm 3 mps 758 mmHg 69%
11:00 +33°C° 0.8 mm 3 mps 758 mmHg 71%
12:00 +33°C° 0.8 mm 3 mps 758 mmHg 73%
13:00 +33°C° 0.5 mm 3 mps 758 mmHg 72%
14:00 +33°C° 0.5 mm 4 mps 757 mmHg 70%
15:00 +33°C° 0.5 mm 4 mps 757 mmHg 68%
16:00 +31°C° 1.3 mm 3 mps 757 mmHg 75%
17:00 +29°C° 1.3 mm 3 mps 757 mmHg 82%
18:00 +28°C° 1.3 mm 3 mps 757 mmHg 89%
19:00 +27°C° 0.2 mm 2 mps 758 mmHg 91%
20:00 +27°C° 0.2 mm 2 mps 758 mmHg 93%
21:00 +27°C° 0.2 mm 2 mps 759 mmHg 96%
22:00 +26°C° 0.1 mm 2 mps 758 mmHg 96%
23:00 +26°C° 0.1 mm 2 mps 758 mmHg 96%

15 July, Wednesday

Time Temperature Precipitation Wind Pressure Humidity
00:00 +26°C° 0.1 mm 1 mps 758 mmHg 96%
01:00 +26°C° 0.2 mm 1 mps 758 mmHg 96%
02:00 +26°C° 0.2 mm 1 mps 758 mmHg 96%
03:00 +26°C° 0.2 mm 1 mps 757 mmHg 96%
04:00 +26°C° 0 mm 1 mps 757 mmHg 96%
05:00 +26°C° 0 mm 1 mps 757 mmHg 96%
06:00 +27°C° 0 mm 1 mps 757 mmHg 96%
07:00 +28°C° 0.1 mm 2 mps 758 mmHg 86%
08:00 +30°C° 0.1 mm 3 mps 758 mmHg 77%
09:00 +33°C° 0.1 mm 4 mps 759 mmHg 67%
10:00 +34°C° 0 mm 4 mps 759 mmHg 63%
11:00 +35°C° 0 mm 5 mps 758 mmHg 60%
12:00 +35°C° 0 mm 5 mps 758 mmHg 56%
13:00 +35°C° 0.1 mm 5 mps 758 mmHg 57%
14:00 +35°C° 0.1 mm 4 mps 758 mmHg 58%
15:00 +35°C° 0.1 mm 4 mps 757 mmHg 59%
16:00 +34°C° 0.1 mm 4 mps 757 mmHg 66%
17:00 +31°C° 0.1 mm 3 mps 757 mmHg 73%
18:00 +30°C° 0.1 mm 3 mps 758 mmHg 80%
19:00 +29°C° 0 mm 2 mps 758 mmHg 84%
20:00 +28°C° 0 mm 2 mps 758 mmHg 88%
21:00 +27°C° 0 mm 2 mps 759 mmHg 92%
22:00 +27°C° 0 mm 1 mps 759 mmHg 93%
23:00 +27°C° 0 mm 1 mps 758 mmHg 94%

16 July, Thursday

Time Temperature Precipitation Wind Pressure Humidity
00:00 +27°C° 0 mm 1 mps 758 mmHg 95%
01:00 +27°C° 0.3 mm 1 mps 758 mmHg 95%
02:00 +27°C° 0.3 mm 1 mps 758 mmHg 96%
03:00 +27°C° 0.3 mm 1 mps 758 mmHg 96%
04:00 +27°C° 0.1 mm 1 mps 758 mmHg 96%
05:00 +27°C° 0.1 mm 1 mps 758 mmHg 96%
06:00 +27°C° 0.1 mm 1 mps 758 mmHg 96%
07:00 +28°C° 0.2 mm 1 mps 758 mmHg 90%
08:00 +30°C° 0.2 mm 2 mps 759 mmHg 84%
09:00 +31°C° 0.2 mm 2 mps 760 mmHg 78%
10:00 +33°C° 0.2 mm 3 mps 759 mmHg 73%
11:00 +34°C° 0.2 mm 3 mps 759 mmHg 68%
12:00 +35°C° 0.2 mm 3 mps 759 mmHg 62%
13:00 +35°C° 0.4 mm 3 mps 758 mmHg 63%
14:00 +35°C° 0.4 mm 3 mps 758 mmHg 64%
15:00 +34°C° 0.4 mm 3 mps 758 mmHg 65%
16:00 +33°C° 0 mm 3 mps 757 mmHg 70%
17:00 +31°C° 0 mm 2 mps 757 mmHg 74%
18:00 +30°C° 0 mm 2 mps 757 mmHg 78%
19:00 +29°C° 0 mm 2 mps 758 mmHg 84%
20:00 +28°C° 0 mm 1 mps 758 mmHg 89%
21:00 +27°C° 0 mm 1 mps 759 mmHg 94%
22:00 +27°C° 0 mm 1 mps 759 mmHg 95%
23:00 +27°C° 0 mm 1 mps 758 mmHg 96%

17 July, Friday

Time Temperature Precipitation Wind Pressure Humidity
00:00 +26°C° 0 mm 1 mps 758 mmHg 96%
01:00 +26°C° 0 mm 1 mps 758 mmHg 97%
02:00 +26°C° 0 mm 1 mps 758 mmHg 97%
03:00 +26°C° 0 mm 1 mps 758 mmHg 98%
04:00 +26°C° 0.1 mm 1 mps 758 mmHg 98%
05:00 +26°C° 0.1 mm 1 mps 758 mmHg 97%
06:00 +26°C° 0.1 mm 1 mps 758 mmHg 97%
07:00 +27°C° 0.3 mm 1 mps 758 mmHg 92%
08:00 +29°C° 0.3 mm 1 mps 759 mmHg 86%
09:00 +30°C° 0.3 mm 1 mps 759 mmHg 81%
10:00 +30°C° 0.8 mm 1 mps 759 mmHg 79%
11:00 +31°C° 0.8 mm 2 mps 758 mmHg 77%
12:00 +31°C° 0.8 mm 2 mps 758 mmHg 76%
13:00 +31°C° 0.3 mm 2 mps 757 mmHg 75%
14:00 +31°C° 0.3 mm 2 mps 757 mmHg 74%
15:00 +32°C° 0.3 mm 2 mps 756 mmHg 72%
16:00 +31°C° 0.2 mm 1 mps 756 mmHg 76%
17:00 +30°C° 0.2 mm 1 mps 756 mmHg 80%
18:00 +29°C° 0.2 mm 1 mps 756 mmHg 83%
19:00 +28°C° 0 mm 1 mps 756 mmHg 86%
20:00 +27°C° 0 mm 1 mps 757 mmHg 90%
21:00 +27°C° 0 mm 1 mps 757 mmHg 93%
22:00 +24°C° 0.1 mm 0 mps 757 mmHg 94%
23:00 +24°C° 0.1 mm 0 mps 757 mmHg 95%
Show more